Location: Multiple Mirror Telescope
(31.6889°N, 110.8853°W)
Time: 02:19:37
(UTC-07:00)

ARIANE 6 FM1 Upper Stage - Visible Passes

Search period start: 12 May 2025 00:00
Search period end: 22 May 2025 00:00
Orbit: 534 x 608 km, 62.0° (Epoch: 11 May)

Date Brightness Start Highest point End Pass type
(mag) Time Alt. Az. Time Alt. Az. Time Alt. Az.
13 May 5.8 22:51:29 11° N 22:51:29 11° N 22:51:43 10° N visible
14 May 5.6 22:51:33 14° NNW 22:51:33 14° NNW 22:52:50 10° NNW visible
15 May 3.6 21:14:39 34° NE 21:14:39 34° NE 21:17:01 10° NE visible
16 May 2.9 21:10:52 10° SW 21:14:50 65° WNW 21:18:50 10° NNE visible
17 May 4.0 21:12:58 10° SW 21:16:43 38° NW 21:20:29 10° NNE visible
18 May 3.7 19:36:29 10° SSE 19:39:39 22° ESE 19:42:49 10° ENE visible
18 May 5.0 21:15:22 10° WSW 21:18:39 24° NW 21:21:56 10° N visible
19 May 3.0 19:37:39 10° S 19:41:23 38° ESE 19:45:07 10° NE visible
19 May 5.8 21:18:10 10° W 21:20:37 16° NW 21:23:05 10° N visible
20 May 6.2 04:06:16 10° NNE 04:08:08 13° NE 04:10:01 10° ENE visible
20 May 2.5 19:39:10 10° SSW 19:43:08 68° ESE 19:47:08 10° NE visible
21 May 5.8 04:07:07 10° N 04:10:09 19° NE 04:13:13 10° E visible
21 May 3.0 19:40:57 10° SW 19:44:56 69° WNW 19:48:57 10° NNE visible
